Weather History for KCHO - November, 2012

Change the Weather History Date:

Thursday, November 8, 2012

  Actual Average Record
Temperature  
Mean Temperature 47 °F 50 °F  
Max Temperature 58 °F 61 °F 77 °F (1965)
Min Temperature 36 °F 38 °F 24 °F (2007)
Degree Days  
Heating Degree Days 18 16  
Month to date heating degree days 171 117  
Since 1 July heating degree days 451 466  
Cooling Degree Days 0 0  
Month to date cooling degree days 0 0  
Year to date cooling degree days 1604 1034  
Moisture  
Dew Point 14 °F    
Average Humidity 43    
Maximum Humidity 70    
Minimum Humidity 15    
Precipitation  
Precipitation 0.00 in 0.13 in 1.27 in (1977)
Month to date precipitation 0.00 1.09  
Year to date precipitation 33.25 36.82  
Sea Level Pressure  
Sea Level Pressure 29.99 in    
Wind  
Wind Speed 7 mph (NNW)    
Max Wind Speed 17 mph    
Max Gust Speed 28 mph    
Visibility 10 miles    
Events      
T = Trace of Precipitation, MM = Missing Value Source: NWS Daily Summary

Daily Weather History Graph

Daily Weather History Graph

Search for Another Location

Airport or City:

Trip Planner

Search our weather history database for the weather conditions in past years. The results will help you decide how hot, cold, wet, or windy it might be!

Date:

Astronomy

Nov. 08, 2012 Rise Set
Actual Time 6:47 AM EST 5:06 PM EST
Civil Twilight 6:19 AM EST 5:34 PM EST
Nautical Twilight 5:48 AM EST 6:06 PM EST
Astronomical Twilight 5:17 AM EST 6:37 PM EST
Moon 12:46 AM EST (11/8) 1:42 PM EST (11/8)
Length of Visible Light 11h 14m
Length of Day
10h 19m
Waning Crescent, 33% of the Moon is Illuminated
Nov 8
Waning Crescent
Nov 13
New
Nov 20
First Quarter
Nov 28
Full
Dec 6
Last Quarter

Hourly Weather History & Observations

Time (EST) Temp. Windchill Dew Point Humidity Pressure Visibility Wind Dir Wind Speed Gust Speed Precip Events Conditions
12:53 AM 37.0 °F - 28.0 °F 70% 29.93 in 10.0 mi Calm Calm - N/A   Partly Cloudy
1:53 AM 39.9 °F 37.8 °F 21.9 °F 49% 29.92 in 10.0 mi NW 3.5 mph - N/A   Mostly Cloudy
2:53 AM 42.1 °F 39.2 °F 17.1 °F 37% 29.93 in 10.0 mi NNW 4.6 mph - N/A   Scattered Clouds
3:53 AM 42.1 °F 37.7 °F 15.1 °F 34% 29.92 in 10.0 mi WNW 6.9 mph - N/A   Clear
4:53 AM 43.0 °F 41.3 °F 10.9 °F 27% 29.93 in 10.0 mi Variable 3.5 mph - N/A   Clear
5:53 AM 42.1 °F 39.2 °F 10.0 °F 27% 29.95 in 10.0 mi West 4.6 mph - N/A   Clear
6:53 AM 43.0 °F 39.5 °F 9.0 °F 25% 29.96 in 10.0 mi Variable 5.8 mph - N/A   Clear
7:53 AM 45.0 °F 41.8 °F 10.9 °F 25% 29.98 in 10.0 mi Variable 5.8 mph - N/A   Clear
8:53 AM 46.9 °F - 8.1 °F 21% 29.99 in 10.0 mi NW 8.1 mph - N/A   Clear
9:53 AM 50.0 °F - 9.0 °F 19% 30.00 in 10.0 mi NNW 9.2 mph 20.7 mph N/A   Clear
10:53 AM 53.1 °F - 7.0 °F 16% 30.00 in 10.0 mi NNW 13.8 mph 20.7 mph N/A   Clear
12:53 PM 55.0 °F - 9.0 °F 16% 29.97 in 10.0 mi NNW 13.8 mph 27.6 mph N/A   Clear
1:53 PM 57.9 °F - 10.9 °F 16% 29.96 in 10.0 mi NNW 13.8 mph 25.3 mph N/A   Clear
2:53 PM 57.0 °F - 10.0 °F 15% 29.96 in 10.0 mi NNW 11.5 mph 18.4 mph N/A   Clear
3:53 PM 55.9 °F - 10.9 °F 17% 29.97 in 10.0 mi NNW 6.9 mph - N/A   Clear
4:53 PM 53.1 °F - 12.0 °F 20% 29.99 in 10.0 mi North 5.8 mph - N/A   Clear
5:53 PM 50.0 °F - 12.9 °F 23% 30.01 in 10.0 mi Variable 4.6 mph - N/A   Clear
6:53 PM 48.9 °F - 15.1 °F 26% 30.04 in 10.0 mi North 4.6 mph - N/A   Clear
7:53 PM 46.9 °F - 15.1 °F 28% 30.05 in 10.0 mi Calm Calm - N/A   Clear
8:53 PM 46.9 °F - 18.0 °F 32% 30.07 in 10.0 mi Calm Calm - N/A   Clear
9:53 PM 46.0 °F 43.9 °F 19.0 °F 34% 30.08 in 10.0 mi North 4.6 mph - N/A   Clear
10:53 PM 45.0 °F 43.5 °F 19.0 °F 36% 30.09 in 10.0 mi Variable 3.5 mph - N/A   Clear
11:53 PM 45.0 °F 41.2 °F 19.9 °F 37% 30.09 in 10.0 mi WNW 6.9 mph - N/A   Clear